Location: Unspecified
(0.0000°N, 0.0000°E)
Time: 05:54:49
(UTC+00:00)

METEOR M2 - Pass Details

Date: 04 July 2020
Orbit: 818 x 828 km, 98.5° (Epoch: 13 August)

Event Time Altitude Azimuth Distance (km) Brightness Sun altitude
Exits shadow 19:09:19 21° 97° (E) 1,793 ? -14.9°
Maximum altitude 19:10:35 22° 77° (ENE) 1,712 ? -15.2°
Drops below altitude 10° 19:14:40 10° 27° (NNE) 2,420 ? -16.1°
Sets 19:17:29 0° 13° (NNE) 3,351 ? -16.8°
